When you browse on this site, cookies collect data to enhance your experience and personalize the content and advertising you see.
Visit our Privacy Policy to learn more. By continuing to use the site, you agree to this use of cookies and data.
  • In Latvia
  • List of Countries
  • For 7 days
  • Water Temperature
  • Satellite Maps
  • Weather Map
  • Weather Widgets
  • user-avatar
    Login

    Hourly Weather Mohovoy

    Today, 25 June, Tuesday

    Time Temperature Precipitation Wind Pressure Humidity
    00:00 +19°C° 0.5 mm 3 mps 748 mmHg 84%
    01:00 +19°C° 0 mm 3 mps 749 mmHg 87%
    02:00 +19°C° 0 mm 3 mps 749 mmHg 90%
    03:00 +19°C° 0 mm 2 mps 749 mmHg 96%
    04:00 +19°C° 0.5 mm 3 mps 749 mmHg 93%
    05:00 +19°C° 0.5 mm 4 mps 749 mmHg 90%
    06:00 +20°C° 0.5 mm 5 mps 750 mmHg 86%
    07:00 +20°C° 0.1 mm 5 mps 750 mmHg 78%
    08:00 +21°C° 0.1 mm 6 mps 750 mmHg 70%
    09:00 +22°C° 0 mm 6 mps 750 mmHg 62%
    10:00 +23°C° 0 mm 6 mps 751 mmHg 57%
    11:00 +24°C° 0 mm 6 mps 751 mmHg 52%
    12:00 +26°C° 0 mm 5 mps 751 mmHg 47%
    13:00 +26°C° 0 mm 5 mps 751 mmHg 47%
    14:00 +26°C° 0 mm 6 mps 751 mmHg 47%
    15:00 +27°C° 0 mm 6 mps 751 mmHg 47%
    16:00 +26°C° 0 mm 6 mps 751 mmHg 51%
    17:00 +24°C° 0 mm 6 mps 750 mmHg 54%
    18:00 +23°C° 0 mm 7 mps 750 mmHg 58%
    19:00 +22°C° 0 mm 6 mps 751 mmHg 62%
    20:00 +20°C° 0 mm 5 mps 751 mmHg 66%
    21:00 +18°C° 0 mm 4 mps 752 mmHg 70%
    22:00 +18°C° 0 mm 4 mps 752 mmHg 72%
    23:00 +17°C° 0 mm 4 mps 752 mmHg 74%

    Tomorrow, 26 June, Wednesday

    Time Temperature Precipitation Wind Pressure Humidity
    00:00 +15°C° 0 mm 4 mps 752 mmHg 76%
    01:00 +15°C° 0 mm 4 mps 752 mmHg 77%
    02:00 +14°C° 0 mm 4 mps 752 mmHg 79%
    03:00 +14°C° 0 mm 4 mps 753 mmHg 80%
    04:00 +14°C° 0 mm 4 mps 753 mmHg 77%
    05:00 +15°C° 0 mm 4 mps 753 mmHg 75%
    06:00 +15°C° 0 mm 4 mps 753 mmHg 72%
    07:00 +17°C° 0 mm 5 mps 753 mmHg 66%
    08:00 +19°C° 0 mm 5 mps 753 mmHg 61%
    09:00 +20°C° 0 mm 5 mps 753 mmHg 55%
    10:00 +21°C° 0 mm 5 mps 753 mmHg 53%
    11:00 +21°C° 0 mm 5 mps 753 mmHg 51%
    12:00 +22°C° 0 mm 5 mps 753 mmHg 49%
    13:00 +22°C° 0 mm 5 mps 752 mmHg 49%
    14:00 +22°C° 0 mm 4 mps 752 mmHg 49%
    15:00 +22°C° 0 mm 4 mps 752 mmHg 48%
    16:00 +22°C° 0 mm 4 mps 752 mmHg 52%
    17:00 +21°C° 0 mm 4 mps 752 mmHg 55%
    18:00 +21°C° 0 mm 3 mps 751 mmHg 58%
    19:00 +20°C° 0 mm 3 mps 751 mmHg 61%
    20:00 +18°C° 0 mm 3 mps 751 mmHg 64%
    21:00 +17°C° 0 mm 3 mps 751 mmHg 67%
    22:00 +16°C° 0 mm 3 mps 750 mmHg 69%
    23:00 +16°C° 0 mm 2 mps 750 mmHg 70%

    Day after tomorrow, 27 June, Thursday

    Time Temperature Precipitation Wind Pressure Humidity
    00:00 +15°C° 0 mm 2 mps 749 mmHg 71%
    01:00 +15°C° 0 mm 2 mps 749 mmHg 71%
    02:00 +15°C° 0 mm 2 mps 749 mmHg 70%
    03:00 +15°C° 0 mm 2 mps 748 mmHg 70%
    04:00 +16°C° 0 mm 3 mps 748 mmHg 69%
    05:00 +16°C° 0 mm 3 mps 747 mmHg 68%
    06:00 +17°C° 0 mm 4 mps 747 mmHg 67%
    07:00 +17°C° 0 mm 4 mps 746 mmHg 68%
    08:00 +17°C° 0 mm 4 mps 746 mmHg 70%
    09:00 +18°C° 0 mm 3 mps 746 mmHg 71%
    10:00 +18°C° 0.1 mm 3 mps 745 mmHg 71%
    11:00 +19°C° 0.1 mm 3 mps 745 mmHg 70%
    12:00 +20°C° 0.1 mm 2 mps 744 mmHg 70%
    13:00 +20°C° 0.4 mm 2 mps 744 mmHg 72%
    14:00 +20°C° 0.4 mm 3 mps 743 mmHg 75%
    15:00 +20°C° 0.4 mm 3 mps 743 mmHg 77%
    16:00 +19°C° 0.3 mm 2 mps 742 mmHg 83%
    17:00 +18°C° 0.3 mm 2 mps 742 mmHg 88%
    18:00 +17°C° 0.3 mm 2 mps 741 mmHg 93%
    19:00 +17°C° 0.2 mm 2 mps 741 mmHg 93%
    20:00 +17°C° 0.2 mm 2 mps 740 mmHg 93%
    21:00 +17°C° 0.2 mm 3 mps 740 mmHg 92%
    22:00 +17°C° 0 mm 3 mps 739 mmHg 91%
    23:00 +17°C° 0 mm 3 mps 739 mmHg 89%

    28 June, Friday

    Time Temperature Precipitation Wind Pressure Humidity
    00:00 +17°C° 0 mm 4 mps 738 mmHg 88%
    01:00 +17°C° 0 mm 4 mps 737 mmHg 85%
    02:00 +17°C° 0 mm 4 mps 737 mmHg 82%
    03:00 +17°C° 0 mm 3 mps 736 mmHg 80%
    04:00 +17°C° 0 mm 4 mps 736 mmHg 77%
    05:00 +18°C° 0 mm 4 mps 736 mmHg 74%
    06:00 +19°C° 0 mm 5 mps 735 mmHg 71%
    07:00 +21°C° 0 mm 5 mps 735 mmHg 66%
    08:00 +22°C° 0 mm 6 mps 735 mmHg 61%
    09:00 +24°C° 0 mm 7 mps 735 mmHg 56%
    10:00 +24°C° 0 mm 7 mps 734 mmHg 55%
    11:00 +24°C° 0 mm 7 mps 734 mmHg 55%
    12:00 +26°C° 0 mm 6 mps 734 mmHg 55%
    13:00 +26°C° 0 mm 6 mps 734 mmHg 56%
    14:00 +24°C° 0 mm 6 mps 734 mmHg 57%
    15:00 +25°C° 0 mm 5 mps 733 mmHg 58%
    16:00 +24°C° 0.3 mm 6 mps 733 mmHg 63%
    17:00 +23°C° 0.3 mm 6 mps 733 mmHg 67%
    18:00 +23°C° 0.3 mm 6 mps 733 mmHg 72%
    19:00 +22°C° 0.2 mm 5 mps 733 mmHg 76%
    20:00 +20°C° 0.2 mm 4 mps 734 mmHg 81%
    21:00 +19°C° 0.2 mm 3 mps 734 mmHg 85%
    22:00 +18°C° 0 mm 3 mps 734 mmHg 86%
    23:00 +17°C° 0 mm 4 mps 734 mmHg 87%

    29 June, Saturday

    Time Temperature Precipitation Wind Pressure Humidity
    00:00 +15°C° 0 mm 4 mps 734 mmHg 88%
    01:00 +16°C° 0 mm 3 mps 735 mmHg 88%
    02:00 +14°C° 0 mm 3 mps 735 mmHg 87%
    03:00 +13°C° 0 mm 3 mps 735 mmHg 87%
    04:00 +14°C° 0 mm 3 mps 735 mmHg 84%
    05:00 +14°C° 0 mm 3 mps 735 mmHg 82%
    06:00 +15°C° 0 mm 4 mps 735 mmHg 79%
    07:00 +17°C° 0 mm 4 mps 736 mmHg 74%
    08:00 +19°C° 0 mm 5 mps 736 mmHg 69%
    09:00 +20°C° 0 mm 5 mps 736 mmHg 63%
    10:00 +21°C° 0 mm 5 mps 736 mmHg 60%
    11:00 +22°C° 0 mm 6 mps 737 mmHg 56%
    12:00 +23°C° 0 mm 6 mps 737 mmHg 52%
    13:00 +23°C° 0 mm 6 mps 737 mmHg 53%
    14:00 +22°C° 0 mm 6 mps 737 mmHg 53%
    15:00 +22°C° 0 mm 6 mps 737 mmHg 54%
    16:00 +22°C° 0 mm 5 mps 737 mmHg 56%
    17:00 +21°C° 0 mm 5 mps 737 mmHg 58%
    18:00 +21°C° 0 mm 4 mps 737 mmHg 60%
    19:00 +19°C° 0 mm 3 mps 738 mmHg 64%
    20:00 +18°C° 0 mm 3 mps 738 mmHg 69%
    21:00 +17°C° 0 mm 2 mps 738 mmHg 73%
    22:00 +16°C° 0 mm 2 mps 739 mmHg 76%
    23:00 +15°C° 0 mm 2 mps 739 mmHg 80%

    30 June, Sunday

    Time Temperature Precipitation Wind Pressure Humidity
    00:00 +14°C° 0 mm 2 mps 739 mmHg 83%
    01:00 +14°C° 0 mm 2 mps 739 mmHg 85%
    02:00 +13°C° 0 mm 1 mps 739 mmHg 86%
    03:00 +13°C° 0 mm 1 mps 740 mmHg 88%
    04:00 +14°C° 0 mm 1 mps 740 mmHg 86%
    05:00 +14°C° 0 mm 1 mps 740 mmHg 83%
    06:00 +15°C° 0 mm 2 mps 740 mmHg 81%
    07:00 +16°C° 0 mm 1 mps 740 mmHg 76%
    08:00 +19°C° 0 mm 1 mps 741 mmHg 71%
    09:00 +20°C° 0 mm 1 mps 741 mmHg 66%
    10:00 +20°C° 0.2 mm 1 mps 741 mmHg 63%
    11:00 +21°C° 0.2 mm 1 mps 741 mmHg 61%
    12:00 +21°C° 0.2 mm 2 mps 741 mmHg 59%
    13:00 +21°C° 0.3 mm 2 mps 741 mmHg 59%
    14:00 +21°C° 0.3 mm 2 mps 741 mmHg 59%
    15:00 +21°C° 0.3 mm 2 mps 741 mmHg 59%
    16:00 +21°C° 0.1 mm 2 mps 741 mmHg 61%
    17:00 +21°C° 0.1 mm 2 mps 742 mmHg 63%
    18:00 +21°C° 0.1 mm 2 mps 742 mmHg 65%
    19:00 +19°C° 0.1 mm 3 mps 742 mmHg 72%
    20:00 +18°C° 0.1 mm 4 mps 743 mmHg 78%
    21:00 +15°C° 0.1 mm 4 mps 743 mmHg 85%
    22:00 +14°C° 0 mm 4 mps 743 mmHg 85%
    23:00 +14°C° 0 mm 5 mps 743 mmHg 85%
    Show more